Tracking 22881 objects as of 19-Apr-2021
HD Live streaming from Space Station
objects crossing your sky now

OPS 7033 (VELA 11)

Track OPS 7033 (VELA 11) now!
OPS 7033 (VELA 11) is classified as:


NORAD ID: 4368
Int'l Code: 1970-027B
Perigee: 15,311.2 km
Apogee: 207,445.4 km
Inclination: 68.9 °
Period: 6,701.9 minutes
Semi major axis: 117749 km
RCS: Unknown
Launch date: April 8, 1970
Source: United States (US)
Launch site: AIR FORCE EASTERN TEST RANGE (AFETR)
aabbcc
Your satellite tracking list
Your tracking list is empty




NASA's NSSDC Master Catalog

Two Line Element Set (TLE):
1 04368U 70027B   21024.92771458  .00000732  00000-0  00000-0 0  9991
2 04368  68.8689  63.7201 8158617 131.3046   0.7958  0.21486489  8381
Source of the keplerian elements: AFSPC